| time (UTC) | temp F | wind direction | speed MPH | gust MPH | rain 1hr in | rain 24hr in | rain mn in | humidity % | barometer mb |
| 20260906233306 | 75 | 324 | 0.0 | 0.0 | 0.00 | 0.00 | 0.00 | 75 | 1020.3 |
| 20260906232807 | 75 | 324 | 0.0 | 0.0 | 0.00 | 0.00 | 0.00 | 75 | 1020.3 |
| 20260906232307 | 75 | 324 | 0.0 | 0.0 | 0.00 | 0.00 | 0.00 | 76 | 1020.3 |
| 20260906231807 | 75 | 324 | 0.0 | 1.0 | 0.00 | 0.00 | 0.00 | 75 | 1020.3 |
| 20260906231306 | 75 | 324 | 0.0 | 0.0 | 0.00 | 0.00 | 0.00 | 76 | 1020.3 |
| 20260906230806 | 75 | 324 | 0.0 | 0.0 | 0.00 | 0.00 | 0.00 | 76 | 1020.3 |
| 20260906230306 | 76 | 324 | 0.0 | 1.0 | 0.00 | 0.00 | 0.00 | 76 | 1020.3 |
| 20260906225806 | 76 | 324 | 0.0 | 0.0 | 0.00 | 0.00 | 0.00 | 74 | 1020.2 |
| 20260906225307 | 76 | 324 | 0.0 | 0.0 | 0.00 | 0.00 | 0.00 | 75 | 1020.3 |
| 20260906224806 | 77 | 324 | 0.0 | 1.0 | 0.00 | 0.00 | 0.00 | 75 | 1020.3 |
| 20260906224307 | 77 | 324 | 0.0 | 0.0 | 0.00 | 0.00 | 0.00 | 74 | 1020.3 |
| 20260906223807 | 77 | 324 | 0.0 | 0.0 | 0.00 | 0.00 | 0.00 | 73 | 1020.3 |
| 20260906223306 | 77 | 324 | 0.0 | 0.0 | 0.00 | 0.00 | 0.00 | 73 | 1020.3 |
| 20260906222807 | 77 | 324 | 0.0 | 0.0 | 0.00 | 0.00 | 0.00 | 72 | 1020.2 |
| 20260906222306 | 78 | 324 | 0.0 | 0.0 | 0.00 | 0.00 | 0.00 | 73 | 1020.2 |
| 20260906221806 | 78 | 324 | 0.0 | 0.0 | 0.00 | 0.00 | 0.00 | 74 | 1020.2 |
| 20260906221306 | 78 | 324 | 0.0 | 0.0 | 0.00 | 0.00 | 0.00 | 74 | 1020.2 |
| 20260906220814 | 78 | 324 | 0.0 | 0.0 | 0.00 | 0.00 | 0.00 | 74 | 1020.2 |
| 20260906220306 | 78 | 324 | 0.0 | 0.0 | 0.00 | 0.00 | 0.00 | 74 | 1020.2 |
| 20260906215807 | 79 | 324 | 0.0 | 0.0 | 0.00 | 0.00 | 0.00 | 73 | 1020.1 |
| 20260906213806 | 79 | 324 | 0.0 | 0.0 | 0.00 | 0.00 | 0.00 | 70 | 1020.0 |
| 20260906213306 | 80 | 324 | 0.0 | 0.0 | 0.00 | 0.00 | 0.00 | 70 | 1020.0 |
| 20260906212806 | 80 | 324 | 0.0 | 0.0 | 0.00 | 0.00 | 0.00 | 70 | 1020.0 |
| 20260906211806 | 80 | 324 | 0.0 | 0.0 | 0.00 | 0.00 | 0.00 | 69 | 1020.0 |
| 20260906211306 | 80 | 324 | 0.0 | 1.0 | 0.00 | 0.00 | 0.00 | 69 | 1020.1 |
| 20260906210807 | 80 | 325 | 0.0 | 0.0 | 0.00 | 0.00 | 0.00 | 69 | 1020.1 |
| 20260906210306 | 81 | 324 | 0.0 | 0.0 | 0.00 | 0.00 | 0.00 | 72 | 1020.1 |
| 20260906204306 | 81 | 324 | 0.0 | 0.0 | 0.00 | 0.00 | 0.00 | 67 | 1020.0 |
| 20260906203306 | 81 | 323 | 0.0 | 0.0 | 0.00 | 0.00 | 0.00 | 67 | 1020.0 |
| 20260906202807 | 81 | 323 | 0.0 | 0.0 | 0.00 | 0.00 | 0.00 | 68 | 1020.0 |
| 20260906202307 | 81 | 323 | 0.0 | 0.0 | 0.00 | 0.00 | 0.00 | 69 | 1020.0 |
| 20260906201806 | 82 | 323 | 0.0 | 0.0 | 0.00 | 0.00 | 0.00 | 70 | 1020.0 |
| 20260906200807 | 82 | 323 | 0.0 | 0.0 | 0.00 | 0.00 | 0.00 | 70 | 1020.1 |
| 20260906200306 | 82 | 323 | 0.0 | 0.0 | 0.00 | 0.00 | 0.00 | 70 | 1020.0 |
| 20260906195806 | 82 | 323 | 0.0 | 0.0 | 0.00 | 0.00 | 0.00 | 70 | 1020.0 |
| 20260906195307 | 82 | 324 | 0.0 | 0.0 | 0.00 | 0.00 | 0.00 | 70 | 1019.9 |
| 20260906194807 | 83 | 324 | 0.0 | 0.0 | 0.00 | 0.00 | 0.00 | 69 | 1019.9 |
| 20260906194306 | 83 | 324 | 0.0 | 0.0 | 0.00 | 0.00 | 0.00 | 69 | 1019.8 |
| 20260906193807 | 83 | 324 | 0.0 | 1.0 | 0.00 | 0.00 | 0.00 | 69 | 1019.7 |
| 20260906193306 | 83 | 326 | 0.0 | 0.0 | 0.00 | 0.00 | 0.00 | 68 | 1019.6 |
| 20260906192807 | 83 | 326 | 0.0 | 0.0 | 0.00 | 0.00 | 0.00 | 68 | 1019.6 |
| 20260906192307 | 83 | 326 | 0.0 | 0.0 | 0.00 | 0.00 | 0.00 | 67 | 1019.5 |
| 20260906191306 | 84 | 326 | 0.0 | 0.0 | 0.00 | 0.00 | 0.00 | 67 | 1019.3 |
| 20260906190806 | 84 | 326 | 0.0 | 0.0 | 0.00 | 0.00 | 0.00 | 67 | 1019.2 |
| 20260906190306 | 84 | 326 | 0.0 | 1.0 | 0.00 | 0.00 | 0.00 | 67 | 1019.2 |
| 20260906185807 | 84 | 324 | 0.0 | 1.0 | 0.00 | 0.00 | 0.00 | 66 | 1019.1 |
| 20260906185306 | 84 | 325 | 1.0 | 2.0 | 0.00 | 0.00 | 0.00 | 66 | 1019.0 |
| 20260906184807 | 85 | 323 | 0.0 | 2.0 | 0.00 | 0.00 | 0.00 | 65 | 1019.0 |
| 20260906183806 | 85 | 328 | 0.0 | 1.0 | 0.00 | 0.00 | 0.00 | 64 | 1018.9 |
| 20260906183307 | 85 | 326 | 0.0 | 1.0 | 0.00 | 0.00 | 0.00 | 64 | 1018.8 |
| 20260906182307 | 86 | 326 | 0.0 | 2.0 | 0.00 | 0.00 | 0.00 | 62 | 1018.7 |
| 20260906181806 | 86 | 328 | 1.0 | 3.0 | 0.00 | 0.00 | 0.00 | 61 | 1018.8 |
| 20260906181307 | 87 | 311 | 0.0 | 3.0 | 0.00 | 0.00 | 0.00 | 61 | 1018.8 |
| 20260906180806 | 87 | 324 | 1.0 | 2.0 | 0.00 | 0.00 | 0.00 | 60 | 1018.7 |
| 20260906180306 | 88 | 329 | 0.0 | 2.0 | 0.00 | 0.00 | 0.00 | 59 | 1018.6 |
| 20260906175807 | 88 | 326 | 1.0 | 3.0 | 0.00 | 0.00 | 0.00 | 58 | 1018.6 |
| 20260906174307 | 89 | 328 | 0.0 | 3.0 | 0.00 | 0.00 | 0.00 | 56 | 1018.5 |
| 20260906173807 | 90 | 322 | 1.0 | 3.0 | 0.00 | 0.00 | 0.00 | 56 | 1018.4 |
| 20260906173306 | 90 | 323 | 1.0 | 3.0 | 0.00 | 0.00 | 0.00 | 55 | 1018.4 |
| 20260906172807 | 90 | 313 | 1.0 | 3.0 | 0.00 | 0.00 | 0.00 | 54 | 1018.4 |
| 20260906172306 | 91 | 282 | 2.0 | 3.0 | 0.00 | 0.00 | 0.00 | 53 | 1018.4 |
| 20260906171807 | 91 | 332 | 2.0 | 3.0 | 0.00 | 0.00 | 0.00 | 52 | 1018.4 |
| 20260906171306 | 91 | 316 | 1.0 | 3.0 | 0.00 | 0.00 | 0.00 | 51 | 1018.4 |
| 20260906170807 | 92 | 337 | 0.0 | 2.0 | 0.00 | 0.00 | 0.00 | 52 | 1018.4 |
| 20260906165807 | 92 | 320 | 2.0 | 3.0 | 0.00 | 0.00 | 0.00 | 52 | 1018.3 |
| 20260906165307 | 92 | 321 | 1.0 | 3.0 | 0.00 | 0.00 | 0.00 | 52 | 1018.3 |
| 20260906164307 | 92 | 324 | 1.0 | 3.0 | 0.00 | 0.00 | 0.00 | 51 | 1018.3 |
| 20260906163806 | 92 | 317 | 2.0 | 5.0 | 0.00 | 0.00 | 0.00 | 50 | 1018.2 |
| 20260906163307 | 93 | 314 | 2.0 | 5.0 | 0.00 | 0.00 | 0.00 | 49 | 1018.2 |
| 20260906162306 | 94 | 320 | 2.0 | 6.0 | 0.00 | 0.00 | 0.00 | 48 | 1018.1 |
| 20260906161307 | 94 | 319 | 2.0 | 6.0 | 0.00 | 0.00 | 0.00 | 47 | 1018.1 |
| 20260906160806 | 95 | 318 | 2.0 | 7.0 | 0.00 | 0.00 | 0.00 | 46 | 1018.0 |
| 20260906160307 | 96 | 314 | 2.0 | 5.0 | 0.00 | 0.00 | 0.00 | 44 | 1017.9 |
| 20260906155807 | 96 | 322 | 2.0 | 6.0 | 0.00 | 0.00 | 0.00 | 44 | 1017.9 |
| 20260906154807 | 97 | 322 | 3.0 | 6.0 | 0.00 | 0.00 | 0.00 | 43 | 1018.0 |
| 20260906154307 | 97 | 318 | 2.0 | 6.0 | 0.00 | 0.00 | 0.00 | 42 | 1018.0 |
| 20260906153806 | 97 | 325 | 1.0 | 3.0 | 0.00 | 0.00 | 0.00 | 41 | 1017.9 |
| 20260906153306 | 98 | 312 | 2.0 | 5.0 | 0.00 | 0.00 | 0.00 | 40 | 1017.9 |
| 20260906152808 | 98 | 316 | 2.0 | 5.0 | 0.00 | 0.00 | 0.00 | 39 | 1017.9 |
| 20260906152307 | 98 | 322 | 1.0 | 5.0 | 0.00 | 0.00 | 0.00 | 39 | 1017.9 |
| 20260906151807 | 99 | 322 | 2.0 | 5.0 | 0.00 | 0.00 | 0.00 | 37 | 1017.9 |
| 20260906150806 | 100 | 321 | 2.0 | 6.0 | 0.00 | 0.00 | 0.00 | 37 | 1018.0 |
| 20260906150306 | 100 | 319 | 2.0 | 6.0 | 0.00 | 0.00 | 0.00 | 37 | 1018.0 |
| 20260906145806 | 100 | 321 | 2.0 | 6.0 | 0.00 | 0.00 | 0.00 | 36 | 1017.9 |
| 20260906145307 | 100 | 323 | 2.0 | 5.0 | 0.00 | 0.00 | 0.00 | 36 | 1018.0 |
| 20260906144806 | 100 | 319 | 2.0 | 5.0 | 0.00 | 0.00 | 0.00 | 35 | 1018.0 |
| 20260906144306 | 100 | 325 | 1.0 | 5.0 | 0.00 | 0.00 | 0.00 | 37 | 1018.0 |
| 20260906143306 | 99 | 327 | 2.0 | 3.0 | 0.00 | 0.00 | 0.00 | 38 | 1018.0 |
| 20260906142806 | 99 | 318 | 3.0 | 7.0 | 0.00 | 0.00 | 0.00 | 38 | 1018.1 |
| 20260906142307 | 99 | 314 | 2.0 | 6.0 | 0.00 | 0.00 | 0.00 | 38 | 1018.1 |
| 20260906140306 | 98 | 322 | 2.0 | 5.0 | 0.00 | 0.00 | 0.00 | 38 | 1018.3 |
| 20260906135306 | 99 | 319 | 3.0 | 7.0 | 0.00 | 0.00 | 0.00 | 37 | 1018.4 |
| 20260906134806 | 99 | 320 | 1.0 | 5.0 | 0.00 | 0.00 | 0.00 | 37 | 1018.4 |
| 20260906134306 | 99 | 316 | 2.0 | 8.0 | 0.00 | 0.00 | 0.00 | 37 | 1018.5 |
| 20260906133806 | 99 | 323 | 1.0 | 5.0 | 0.00 | 0.00 | 0.00 | 36 | 1018.4 |
| 20260906133306 | 99 | 329 | 1.0 | 5.0 | 0.00 | 0.00 | 0.00 | 37 | 1018.5 |
| 20260906132806 | 98 | 318 | 2.0 | 7.0 | 0.00 | 0.00 | 0.00 | 37 | 1018.5 |
| 20260906132307 | 99 | 321 | 1.0 | 6.0 | 0.00 | 0.00 | 0.00 | 37 | 1018.5 |
| 20260906131306 | 98 | 317 | 4.0 | 8.0 | 0.00 | 0.00 | 0.00 | 36 | 1018.5 |
| 20260906130806 | 98 | 318 | 3.0 | 7.0 | 0.00 | 0.00 | 0.00 | 37 | 1018.5 |
| 20260906130306 | 99 | 320 | 3.0 | 8.0 | 0.00 | 0.00 | 0.00 | 36 | 1018.6 |
| 20260906125806 | 99 | 326 | 1.0 | 7.0 | 0.00 | 0.00 | 0.00 | 36 | 1018.5 |
| 20260906125307 | 99 | 314 | 4.0 | 8.0 | 0.00 | 0.00 | 0.00 | 35 | 1018.5 |
| 20260906124806 | 99 | 307 | 3.0 | 9.0 | 0.00 | 0.00 | 0.00 | 35 | 1018.5 |
| 20260906124306 | 99 | 312 | 2.0 | 9.0 | 0.00 | 0.00 | 0.00 | 34 | 1018.6 |
| 20260906123806 | 99 | 320 | 2.0 | 7.0 | 0.00 | 0.00 | 0.00 | 34 | 1018.6 |
| 20260906123306 | 99 | 322 | 3.0 | 8.0 | 0.00 | 0.00 | 0.00 | 33 | 1018.6 |
| 20260906122806 | 99 | 326 | 3.0 | 5.0 | 0.00 | 0.00 | 0.00 | 32 | 1018.7 |
| 20260906122307 | 99 | 325 | 2.0 | 6.0 | 0.00 | 0.00 | 0.00 | 32 | 1018.7 |
| 20260906121806 | 99 | 324 | 3.0 | 7.0 | 0.00 | 0.00 | 0.00 | 31 | 1018.8 |
| 20260906121307 | 99 | 317 | 3.0 | 7.0 | 0.00 | 0.00 | 0.00 | 31 | 1018.8 |
| 20260906120806 | 99 | 314 | 2.0 | 6.0 | 0.00 | 0.00 | 0.00 | 32 | 1018.8 |
| 20260906120306 | 99 | 321 | 2.0 | 6.0 | 0.00 | 0.00 | 0.00 | 31 | 1018.9 |
| 20260906115806 | 99 | 326 | 2.0 | 6.0 | 0.00 | 0.00 | 0.00 | 31 | 1018.9 |
| 20260906115307 | 99 | 324 | 2.0 | 6.0 | 0.00 | 0.00 | 0.00 | 30 | 1018.9 |
| 20260906114806 | 100 | 314 | 2.0 | 5.0 | 0.00 | 0.00 | 0.00 | 31 | 1018.9 |
| 20260906113807 | 99 | 320 | 2.0 | 6.0 | 0.00 | 0.00 | 0.00 | 30 | 1018.9 |
| 20260906113306 | 99 | 321 | 1.0 | 5.0 | 0.00 | 0.00 | 0.00 | 29 | 1018.9 |
| 20260906112806 | 99 | 319 | 1.0 | 5.0 | 0.00 | 0.00 | 0.00 | 29 | 1019.0 |
| 20260906112307 | 99 | 320 | 2.0 | 5.0 | 0.00 | 0.00 | 0.00 | 30 | 1019.0 |
| 20260906111806 | 98 | 319 | 3.0 | 6.0 | 0.00 | 0.00 | 0.00 | 30 | 1019.1 |
| 20260906111306 | 99 | 319 | 3.0 | 6.0 | 0.00 | 0.00 | 0.00 | 28 | 1019.1 |
| 20260906110806 | 99 | 322 | 2.0 | 5.0 | 0.00 | 0.00 | 0.00 | 29 | 1019.2 |
| 20260906110306 | 98 | 315 | 2.0 | 5.0 | 0.00 | 0.00 | 0.00 | 28 | 1019.2 |
| 20260906105806 | 98 | 324 | 1.0 | 3.0 | 0.00 | 0.00 | 0.00 | 29 | 1019.2 |
| 20260906105307 | 97 | 299 | 1.0 | 3.0 | 0.00 | 0.00 | 0.00 | 30 | 1019.2 |
| 20260906104806 | 97 | 304 | 2.0 | 9.0 | 0.00 | 0.00 | 0.00 | 30 | 1019.3 |
| 20260906103807 | 97 | 324 | 2.0 | 5.0 | 0.00 | 0.00 | 0.00 | 29 | 1019.4 |
| 20260906103306 | 97 | 314 | 2.0 | 3.0 | 0.00 | 0.00 | 0.00 | 30 | 1019.5 |
| 20260906102807 | 96 | 317 | 2.0 | 6.0 | 0.00 | 0.00 | 0.00 | 31 | 1019.6 |
| 20260906102306 | 96 | 324 | 1.0 | 5.0 | 0.00 | 0.00 | 0.00 | 32 | 1019.5 |
| 20260906101806 | 96 | 322 | 1.0 | 3.0 | 0.00 | 0.00 | 0.00 | 34 | 1019.6 |
| 20260906101306 | 95 | 310 | 0.0 | 3.0 | 0.00 | 0.00 | 0.00 | 35 | 1019.6 |
| 20260906095806 | 94 | 313 | 1.0 | 3.0 | 0.00 | 0.00 | 0.00 | 38 | 1019.8 |
| 20260906095306 | 93 | 286 | 0.0 | 0.0 | 0.00 | 0.00 | 0.00 | 39 | 1019.8 |
| 20260906094806 | 92 | 286 | 0.0 | 1.0 | 0.00 | 0.00 | 0.00 | 40 | 1019.8 |
| 20260906093806 | 91 | 327 | 0.0 | 2.0 | 0.00 | 0.00 | 0.00 | 41 | 1019.9 |
| 20260906093306 | 90 | 289 | 0.0 | 3.0 | 0.00 | 0.00 | 0.00 | 42 | 1019.9 |
| 20260906092806 | 90 | 250 | 0.0 | 2.0 | 0.00 | 0.00 | 0.00 | 42 | 1020.0 |
| 20260906092307 | 89 | 328 | 1.0 | 2.0 | 0.00 | 0.00 | 0.00 | 42 | 1020.0 |
| 20260906091806 | 89 | 299 | 1.0 | 2.0 | 0.00 | 0.00 | 0.00 | 42 | 1020.0 |
| 20260906091307 | 89 | 321 | 1.0 | 2.0 | 0.00 | 0.00 | 0.00 | 43 | 1020.0 |
| 20260906090806 | 88 | 251 | 0.0 | 0.0 | 0.00 | 0.00 | 0.00 | 44 | 1020.0 |
| 20260906085806 | 86 | 251 | 0.0 | 3.0 | 0.00 | 0.00 | 0.00 | 46 | 1020.0 |
| 20260906085307 | 86 | 267 | 1.0 | 3.0 | 0.00 | 0.00 | 0.00 | 46 | 1020.0 |
| 20260906084806 | 85 | 267 | 0.0 | 0.0 | 0.00 | 0.00 | 0.00 | 48 | 1020.0 |
| 20260906083306 | 83 | 272 | 1.0 | 3.0 | 0.00 | 0.00 | 0.00 | 50 | 1019.9 |
| 20260906082806 | 82 | 269 | 1.0 | 5.0 | 0.00 | 0.00 | 0.00 | 51 | 1019.8 |
| 20260906081806 | 81 | 269 | 1.0 | 5.0 | 0.00 | 0.00 | 0.00 | 53 | 1019.9 |
| 20260906081306 | 81 | 274 | 2.0 | 5.0 | 0.00 | 0.00 | 0.00 | 53 | 1019.9 |
| 20260906080807 | 80 | 262 | 1.0 | 3.0 | 0.00 | 0.00 | 0.00 | 54 | 1019.8 |
| 20260906080306 | 80 | 269 | 2.0 | 5.0 | 0.00 | 0.00 | 0.00 | 55 | 1019.8 |
| 20260906075807 | 79 | 269 | 3.0 | 6.0 | 0.00 | 0.00 | 0.00 | 55 | 1019.8 |
| 20260906075306 | 79 | 271 | 3.0 | 6.0 | 0.00 | 0.00 | 0.00 | 55 | 1019.8 |
| 20260906074806 | 79 | 280 | 2.0 | 7.0 | 0.00 | 0.00 | 0.00 | 56 | 1019.8 |
| 20260906074307 | 79 | 272 | 1.0 | 5.0 | 0.00 | 0.00 | 0.00 | 56 | 1019.8 |
| 20260906073306 | 77 | 279 | 1.0 | 5.0 | 0.00 | 0.00 | 0.00 | 58 | 1019.8 |
| 20260906072806 | 77 | 268 | 3.0 | 3.0 | 0.00 | 0.00 | 0.00 | 58 | 1019.9 |
| 20260906071806 | 76 | 271 | 3.0 | 6.0 | 0.00 | 0.00 | 0.00 | 59 | 1019.8 |
| 20260906071306 | 76 | 257 | 1.0 | 6.0 | 0.00 | 0.00 | 0.00 | 59 | 1019.7 |
| 20260906070806 | 76 | 269 | 2.0 | 3.0 | 0.00 | 0.00 | 0.00 | 60 | 1019.8 |
| 20260906070306 | 75 | 262 | 2.0 | 6.0 | 0.00 | 0.00 | 0.00 | 61 | 1019.7 |
| 20260906065806 | 75 | 271 | 2.0 | 6.0 | 0.00 | 0.00 | 0.00 | 62 | 1019.7 |
| 20260906065306 | 75 | 268 | 3.0 | 6.0 | 0.00 | 0.00 | 0.00 | 62 | 1019.7 |
| 20260906064307 | 74 | 272 | 4.0 | 10.0 | 0.00 | 0.00 | 0.00 | 62 | 1019.6 |
| 20260906063807 | 74 | 276 | 3.0 | 7.0 | 0.00 | 0.00 | 0.00 | 63 | 1019.6 |
| 20260906063307 | 74 | 277 | 3.0 | 9.0 | 0.00 | 0.00 | 0.00 | 63 | 1019.6 |
| 20260906062806 | 74 | 267 | 2.0 | 8.0 | 0.00 | 0.00 | 0.00 | 63 | 1019.6 |
| 20260906062307 | 74 | 271 | 2.0 | 7.0 | 0.00 | 0.00 | 0.00 | 63 | 1019.5 |
| 20260906061306 | 74 | 270 | 2.0 | 7.0 | 0.00 | 0.00 | 0.00 | 63 | 1019.4 |
| 20260906060806 | 74 | 271 | 3.0 | 9.0 | 0.00 | 0.00 | 0.00 | 63 | 1019.3 |
| 20260906060307 | 74 | 273 | 4.0 | 10.0 | 0.00 | 0.00 | 0.00 | 63 | 1019.3 |
| 20260906055806 | 74 | 273 | 2.0 | 7.0 | 0.00 | 0.00 | 0.00 | 63 | 1019.2 |
| 20260906055307 | 74 | 272 | 3.0 | 7.0 | 0.00 | 0.00 | 0.00 | 63 | 1019.2 |
| 20260906054806 | 74 | 273 | 4.0 | 10.0 | 0.00 | 0.00 | 0.00 | 63 | 1019.2 |
| 20260906054307 | 74 | 281 | 2.0 | 10.0 | 0.00 | 0.00 | 0.00 | 63 | 1019.2 |
| 20260906053806 | 74 | 278 | 4.0 | 10.0 | 0.00 | 0.00 | 0.00 | 63 | 1019.1 |
| 20260906053306 | 74 | 272 | 3.0 | 10.0 | 0.00 | 0.00 | 0.00 | 63 | 1019.1 |
| 20260906052806 | 74 | 275 | 2.0 | 9.0 | 0.00 | 0.00 | 0.00 | 63 | 1019.1 |
| 20260906052306 | 74 | 273 | 3.0 | 7.0 | 0.00 | 0.00 | 0.00 | 64 | 1019.1 |
| 20260906051807 | 74 | 276 | 2.0 | 5.0 | 0.00 | 0.00 | 0.00 | 64 | 1019.0 |
| 20260906050806 | 74 | 269 | 2.0 | 5.0 | 0.00 | 0.00 | 0.00 | 64 | 1019.0 |
| 20260906050307 | 74 | 267 | 3.0 | 8.0 | 0.00 | 0.00 | 0.00 | 64 | 1019.0 |
| 20260906045806 | 74 | 269 | 2.0 | 6.0 | 0.00 | 0.00 | 0.00 | 64 | 1019.1 |
| 20260906045306 | 74 | 272 | 3.0 | 7.0 | 0.00 | 0.00 | 0.00 | 64 | 1019.1 |
| 20260906044306 | 74 | 270 | 3.0 | 7.0 | 0.00 | 0.00 | 0.00 | 64 | 1019.1 |
| 20260906043806 | 74 | 276 | 3.0 | 10.0 | 0.00 | 0.00 | 0.00 | 65 | 1019.1 |
| 20260906043306 | 74 | 275 | 3.0 | 7.0 | 0.00 | 0.00 | 0.00 | 65 | 1019.1 |
| 20260906042807 | 74 | 270 | 3.0 | 7.0 | 0.00 | 0.00 | 0.00 | 65 | 1019.1 |
| 20260906042307 | 74 | 269 | 2.0 | 5.0 | 0.00 | 0.00 | 0.00 | 65 | 1019.2 |
| 20260906041807 | 74 | 305 | 2.0 | 6.0 | 0.00 | 0.00 | 0.00 | 66 | 1019.2 |
| 20260906041306 | 74 | 282 | 3.0 | 9.0 | 0.00 | 0.00 | 0.00 | 65 | 1019.2 |
| 20260906040807 | 74 | 277 | 3.0 | 9.0 | 0.00 | 0.00 | 0.00 | 65 | 1019.3 |
| 20260906040306 | 74 | 277 | 2.0 | 7.0 | 0.00 | 0.00 | 0.00 | 65 | 1019.3 |
| 20260906035806 | 74 | 277 | 1.0 | 6.0 | 0.00 | 0.00 | 0.00 | 65 | 1019.3 |
| 20260906035306 | 74 | 267 | 3.0 | 6.0 | 0.00 | 0.00 | 0.00 | 65 | 1019.3 |
| 20260906034807 | 74 | 270 | 1.0 | 3.0 | 0.00 | 0.00 | 0.00 | 65 | 1019.4 |
| 20260906034307 | 74 | 272 | 0.0 | 3.0 | 0.00 | 0.00 | 0.00 | 65 | 1019.4 |
| 20260906033806 | 74 | 296 | 1.0 | 2.0 | 0.00 | 0.00 | 0.00 | 65 | 1019.4 |
| 20260906033306 | 74 | 261 | 0.0 | 2.0 | 0.00 | 0.00 | 0.00 | 65 | 1019.5 |
| 20260906032806 | 74 | 326 | 0.0 | 2.0 | 0.00 | 0.00 | 0.00 | 65 | 1019.4 |
| 20260906032307 | 74 | 314 | 0.0 | 2.0 | 0.00 | 0.00 | 0.00 | 66 | 1019.5 |
| 20260906031806 | 75 | 268 | 0.0 | 2.0 | 0.00 | 0.00 | 0.00 | 65 | 1019.5 |
| 20260906031307 | 75 | 274 | 0.0 | 5.0 | 0.00 | 0.00 | 0.00 | 64 | 1019.5 |
| 20260906030807 | 75 | 261 | 2.0 | 5.0 | 0.00 | 0.00 | 0.00 | 64 | 1019.5 |
| 20260906030306 | 75 | 269 | 2.0 | 5.0 | 0.00 | 0.00 | 0.00 | 64 | 1019.5 |
| 20260906025806 | 74 | 274 | 0.0 | 2.0 | 0.00 | 0.00 | 0.00 | 65 | 1019.5 |
| 20260906025306 | 74 | 274 | 0.0 | 3.0 | 0.00 | 0.00 | 0.00 | 66 | 1019.5 |
| 20260906024806 | 73 | 256 | 0.0 | 0.0 | 0.00 | 0.00 | 0.00 | 67 | 1019.6 |
| 20260906024306 | 73 | 277 | 0.0 | 0.0 | 0.00 | 0.00 | 0.00 | 68 | 1019.6 |
| 20260906023806 | 74 | 277 | 0.0 | 0.0 | 0.00 | 0.00 | 0.00 | 69 | 1019.6 |
| 20260906023307 | 74 | 277 | 0.0 | 1.0 | 0.00 | 0.00 | 0.00 | 68 | 1019.6 |
| 20260906022807 | 74 | 267 | 0.0 | 0.0 | 0.00 | 0.00 | 0.00 | 68 | 1019.6 |
| 20260906022307 | 74 | 267 | 0.0 | 0.0 | 0.00 | 0.00 | 0.00 | 67 | 1019.6 |
| 20260906021807 | 74 | 267 | 0.0 | 2.0 | 0.00 | 0.00 | 0.00 | 67 | 1019.6 |
| 20260906021306 | 74 | 333 | 0.0 | 2.0 | 0.00 | 0.00 | 0.00 | 68 | 1019.7 |
| 20260906020806 | 74 | 284 | 0.0 | 0.0 | 0.00 | 0.00 | 0.00 | 71 | 1019.6 |
| 20260906020307 | 73 | 285 | 0.0 | 2.0 | 0.00 | 0.00 | 0.00 | 71 | 1019.7 |
| 20260906015807 | 73 | 288 | 0.0 | 0.0 | 0.00 | 0.00 | 0.00 | 71 | 1019.7 |
| 20260906015307 | 73 | 288 | 0.0 | 0.0 | 0.00 | 0.00 | 0.00 | 71 | 1019.7 |
| 20260906014806 | 73 | 288 | 0.0 | 1.0 | 0.00 | 0.00 | 0.00 | 72 | 1019.8 |
| 20260906014307 | 73 | 253 | 0.0 | 1.0 | 0.00 | 0.00 | 0.00 | 72 | 1019.7 |
| 20260906013306 | 74 | 253 | 0.0 | 0.0 | 0.00 | 0.00 | 0.00 | 72 | 1019.7 |
| 20260906012806 | 74 | 252 | 0.0 | 1.0 | 0.00 | 0.00 | 0.00 | 72 | 1019.7 |
| 20260906012308 | 74 | 283 | 0.0 | 0.0 | 0.00 | 0.00 | 0.00 | 73 | 1019.7 |
| 20260906011808 | 74 | 283 | 0.0 | 1.0 | 0.00 | 0.00 | 0.00 | 73 | 1019.7 |
| 20260906010806 | 75 | 283 | 0.0 | 1.0 | 0.00 | 0.00 | 0.00 | 71 | 1019.6 |
| 20260906010305 | 75 | 256 | 1.0 | 3.0 | 0.00 | 0.00 | 0.00 | 69 | 1019.6 |
| 20260906005306 | 74 | 335 | 0.0 | 0.0 | 0.00 | 0.00 | 0.00 | 74 | 1019.8 |
| 20260906004305 | 75 | 335 | 0.0 | 0.0 | 0.00 | 0.00 | 0.00 | 73 | 1019.9 |
| 20260906003805 | 75 | 335 | 0.0 | 1.0 | 0.00 | 0.00 | 0.00 | 72 | 1019.9 |
| 20260906003304 | 75 | 265 | 0.0 | 0.0 | 0.00 | 0.00 | 0.00 | 72 | 1019.9 |
| 20260906002805 | 75 | 265 | 0.0 | 1.0 | 0.00 | 0.00 | 0.00 | 73 | 1019.9 |
| 20260906002306 | 75 | 265 | 0.0 | 1.0 | 0.00 | 0.00 | 0.00 | 73 | 1019.9 |
| 20260906001805 | 76 | 328 | 0.0 | 1.0 | 0.00 | 0.00 | 0.00 | 72 | 1020.0 |
| 20260906001306 | 76 | 330 | 0.0 | 0.0 | 0.00 | 0.00 | 0.00 | 71 | 1020.0 |
| 20260906000805 | 76 | 267 | 1.0 | 3.0 | 0.00 | 0.00 | 0.00 | 69 | 1020.1 |
| 20260906000304 | 75 | 266 | 0.0 | 3.0 | 0.00 | 0.00 | 0.00 | 74 | 1020.1 |
| 20260905235805 | 75 | 333 | 0.0 | 0.0 | 0.00 | 0.00 | 0.00 | 75 | 1020.1 |
| 20260905235307 | 76 | 333 | 0.0 | 0.0 | 0.00 | 0.00 | 0.00 | 73 | 1020.1 |
| 20260905234806 | 76 | 333 | 0.0 | 0.0 | 0.00 | 0.00 | 0.00 | 72 | 1020.1 |
| 20260905234305 | 76 | 336 | 0.0 | 0.0 | 0.00 | 0.00 | 0.00 | 72 | 1020.1 |
| 20260905233806 | 76 | 336 | 0.0 | 0.0 | 0.00 | 0.00 | 0.00 | 71 | 1020.2 |